• In Belarus
  • List of Countries
  • For 7 days
  • Water Temperature
  • Satellite Maps
  • Weather Map
  • Weather Widgets
  • user-avatar
    Login

    Hourly Weather Carmen

    Today, 11 December, Tuesday

    Time Temperature Precipitation Wind Pressure Humidity
    00:00 +22°C° 0.1 mm 5 mps 767 mmHg 85%
    01:00 +22°C° 0.2 mm 5 mps 767 mmHg 86%
    02:00 +22°C° 0.2 mm 5 mps 767 mmHg 87%
    03:00 +22°C° 0.2 mm 5 mps 767 mmHg 88%
    04:00 +22°C° 0.4 mm 5 mps 767 mmHg 89%
    05:00 +21°C° 0.4 mm 5 mps 767 mmHg 90%
    06:00 +21°C° 0.4 mm 5 mps 767 mmHg 92%
    07:00 +21°C° 0.4 mm 5 mps 768 mmHg 92%
    08:00 +21°C° 0.4 mm 5 mps 768 mmHg 93%
    09:00 +21°C° 0.4 mm 5 mps 769 mmHg 93%
    10:00 +21°C° 0.2 mm 5 mps 768 mmHg 92%
    11:00 +21°C° 0.2 mm 5 mps 768 mmHg 91%
    12:00 +21°C° 0.2 mm 5 mps 768 mmHg 91%
    13:00 +21°C° 0.1 mm 5 mps 767 mmHg 90%
    14:00 +21°C° 0.1 mm 5 mps 767 mmHg 90%
    15:00 +21°C° 0.1 mm 4 mps 766 mmHg 90%
    16:00 +21°C° 0 mm 4 mps 766 mmHg 89%
    17:00 +21°C° 0 mm 5 mps 766 mmHg 89%
    18:00 +21°C° 0 mm 5 mps 766 mmHg 89%
    19:00 +20°C° 0 mm 5 mps 766 mmHg 88%
    20:00 +20°C° 0 mm 4 mps 767 mmHg 88%
    21:00 +20°C° 0 mm 4 mps 767 mmHg 88%
    22:00 +20°C° 0 mm 4 mps 767 mmHg 87%
    23:00 +20°C° 0 mm 4 mps 767 mmHg 87%

    Tomorrow, 12 December, Wednesday

    Time Temperature Precipitation Wind Pressure Humidity
    00:00 +19°C° 0 mm 4 mps 766 mmHg 87%
    01:00 +19°C° 0 mm 4 mps 766 mmHg 86%
    02:00 +19°C° 0 mm 5 mps 766 mmHg 86%
    03:00 +19°C° 0 mm 5 mps 765 mmHg 85%
    04:00 +17°C° 0 mm 5 mps 765 mmHg 84%
    05:00 +17°C° 0 mm 5 mps 765 mmHg 83%
    06:00 +17°C° 0 mm 5 mps 765 mmHg 83%
    07:00 +19°C° 0 mm 4 mps 765 mmHg 79%
    08:00 +20°C° 0 mm 4 mps 765 mmHg 76%
    09:00 +21°C° 0 mm 4 mps 766 mmHg 73%
    10:00 +22°C° 0 mm 4 mps 765 mmHg 69%
    11:00 +25°C° 0 mm 3 mps 765 mmHg 65%
    12:00 +26°C° 0 mm 3 mps 764 mmHg 61%
    13:00 +26°C° 0 mm 3 mps 763 mmHg 61%
    14:00 +26°C° 0 mm 2 mps 762 mmHg 61%
    15:00 +27°C° 0 mm 2 mps 761 mmHg 60%
    16:00 +25°C° 0 mm 2 mps 761 mmHg 66%
    17:00 +24°C° 0 mm 2 mps 761 mmHg 71%
    18:00 +23°C° 0 mm 2 mps 761 mmHg 76%
    19:00 +23°C° 0 mm 2 mps 761 mmHg 76%
    20:00 +21°C° 0 mm 3 mps 762 mmHg 77%
    21:00 +21°C° 0 mm 3 mps 762 mmHg 77%
    22:00 +21°C° 0 mm 3 mps 762 mmHg 77%
    23:00 +21°C° 0 mm 3 mps 761 mmHg 77%

    Day after tomorrow, 13 December, Thursday

    Time Temperature Precipitation Wind Pressure Humidity
    00:00 +21°C° 0 mm 4 mps 761 mmHg 78%
    01:00 +21°C° 0 mm 4 mps 761 mmHg 79%
    02:00 +21°C° 0 mm 5 mps 760 mmHg 79%
    03:00 +21°C° 0 mm 5 mps 760 mmHg 80%
    04:00 +21°C° 0 mm 6 mps 760 mmHg 81%
    05:00 +21°C° 0 mm 6 mps 760 mmHg 83%
    06:00 +21°C° 0 mm 6 mps 760 mmHg 84%
    07:00 +22°C° 0 mm 6 mps 760 mmHg 81%
    08:00 +23°C° 0 mm 6 mps 760 mmHg 78%
    09:00 +24°C° 0 mm 6 mps 761 mmHg 74%
    10:00 +27°C° 0 mm 6 mps 760 mmHg 71%
    11:00 +29°C° 0 mm 6 mps 760 mmHg 67%
    12:00 +30°C° 0 mm 5 mps 759 mmHg 63%
    13:00 +32°C° 0 mm 5 mps 758 mmHg 63%
    14:00 +32°C° 0 mm 4 mps 758 mmHg 62%
    15:00 +33°C° 0 mm 3 mps 757 mmHg 62%
    16:00 +30°C° 0 mm 2 mps 757 mmHg 69%
    17:00 +28°C° 0 mm 1 mps 757 mmHg 77%
    18:00 +27°C° 0 mm 1 mps 758 mmHg 84%
    19:00 +26°C° 0 mm 1 mps 758 mmHg 85%
    20:00 +26°C° 0 mm 1 mps 759 mmHg 87%
    21:00 +23°C° 0 mm 0 mps 760 mmHg 88%
    22:00 +25°C° 0.2 mm 1 mps 760 mmHg 89%
    23:00 +25°C° 0.2 mm 1 mps 760 mmHg 90%

    14 December, Friday

    Time Temperature Precipitation Wind Pressure Humidity
    00:00 +25°C° 0.2 mm 2 mps 760 mmHg 91%
    01:00 +25°C° 1.7 mm 2 mps 760 mmHg 92%
    02:00 +24°C° 1.7 mm 2 mps 760 mmHg 94%
    03:00 +24°C° 1.7 mm 3 mps 760 mmHg 96%
    04:00 +24°C° 1.2 mm 3 mps 761 mmHg 95%
    05:00 +23°C° 1.2 mm 4 mps 761 mmHg 95%
    06:00 +23°C° 1.2 mm 5 mps 762 mmHg 95%
    07:00 +23°C° 0.8 mm 6 mps 763 mmHg 93%
    08:00 +24°C° 0.8 mm 7 mps 764 mmHg 91%
    09:00 +24°C° 0.8 mm 8 mps 765 mmHg 90%
    10:00 +24°C° 0.5 mm 9 mps 765 mmHg 87%
    11:00 +23°C° 0.5 mm 9 mps 765 mmHg 85%
    12:00 +23°C° 0.5 mm 10 mps 765 mmHg 83%
    13:00 +23°C° 0 mm 9 mps 765 mmHg 77%
    14:00 +24°C° 0 mm 9 mps 764 mmHg 71%
    15:00 +24°C° 0 mm 8 mps 764 mmHg 66%
    16:00 +24°C° 0 mm 8 mps 765 mmHg 67%
    17:00 +23°C° 0 mm 7 mps 765 mmHg 69%
    18:00 +22°C° 0 mm 6 mps 766 mmHg 70%
    19:00 +22°C° 0 mm 6 mps 766 mmHg 71%
    20:00 +21°C° 0 mm 5 mps 767 mmHg 72%
    21:00 +21°C° 0 mm 5 mps 767 mmHg 73%
    22:00 +21°C° 0 mm 4 mps 767 mmHg 73%
    23:00 +20°C° 0 mm 4 mps 767 mmHg 73%

    15 December, Saturday

    Time Temperature Precipitation Wind Pressure Humidity
    00:00 +20°C° 0 mm 4 mps 767 mmHg 74%
    01:00 +20°C° 0 mm 4 mps 766 mmHg 75%
    02:00 +19°C° 0 mm 4 mps 766 mmHg 76%
    03:00 +19°C° 0 mm 4 mps 766 mmHg 77%
    04:00 +19°C° 0 mm 3 mps 766 mmHg 77%
    05:00 +19°C° 0 mm 3 mps 766 mmHg 77%
    06:00 +19°C° 0 mm 3 mps 767 mmHg 77%
    07:00 +21°C° 0 mm 2 mps 767 mmHg 73%
    08:00 +23°C° 0 mm 2 mps 767 mmHg 69%
    09:00 +24°C° 0 mm 2 mps 768 mmHg 64%
    10:00 +25°C° 0 mm 2 mps 767 mmHg 62%
    11:00 +25°C° 0 mm 2 mps 767 mmHg 59%
    12:00 +26°C° 0 mm 2 mps 766 mmHg 56%
    13:00 +26°C° 0 mm 3 mps 765 mmHg 56%
    14:00 +26°C° 0 mm 3 mps 765 mmHg 55%
    15:00 +26°C° 0 mm 3 mps 764 mmHg 55%
    16:00 +25°C° 0 mm 3 mps 764 mmHg 60%
    17:00 +24°C° 0 mm 3 mps 764 mmHg 65%
    18:00 +21°C° 0 mm 3 mps 765 mmHg 70%
    19:00 +21°C° 0 mm 3 mps 765 mmHg 71%
    20:00 +21°C° 0 mm 3 mps 765 mmHg 72%
    21:00 +21°C° 0 mm 3 mps 766 mmHg 73%
    22:00 +20°C° 0 mm 3 mps 765 mmHg 75%
    23:00 +20°C° 0 mm 3 mps 765 mmHg 76%

    16 December, Sunday

    Time Temperature Precipitation Wind Pressure Humidity
    00:00 +20°C° 0 mm 3 mps 765 mmHg 78%
    01:00 +20°C° 0 mm 3 mps 765 mmHg 79%
    02:00 +20°C° 0 mm 4 mps 765 mmHg 81%
    03:00 +20°C° 0 mm 4 mps 764 mmHg 82%
    04:00 +20°C° 0 mm 4 mps 765 mmHg 82%
    05:00 +19°C° 0 mm 4 mps 765 mmHg 82%
    06:00 +19°C° 0 mm 4 mps 765 mmHg 82%
    07:00 +20°C° 0 mm 4 mps 766 mmHg 78%
    08:00 +22°C° 0 mm 4 mps 766 mmHg 74%
    09:00 +23°C° 0 mm 4 mps 767 mmHg 70%
    10:00 +25°C° 0 mm 4 mps 766 mmHg 66%
    11:00 +26°C° 0 mm 3 mps 765 mmHg 62%
    12:00 +27°C° 0 mm 3 mps 765 mmHg 58%
    13:00 +27°C° 0 mm 3 mps 764 mmHg 58%
    14:00 +28°C° 0 mm 3 mps 763 mmHg 57%
    15:00 +28°C° 0 mm 3 mps 763 mmHg 57%
    16:00 +26°C° 0 mm 3 mps 763 mmHg 62%
    17:00 +25°C° 0 mm 3 mps 763 mmHg 67%
    18:00 +24°C° 0 mm 3 mps 763 mmHg 72%
    19:00 +23°C° 0 mm 4 mps 764 mmHg 73%
    20:00 +23°C° 0 mm 4 mps 764 mmHg 74%
    21:00 +23°C° 0 mm 5 mps 765 mmHg 75%
    22:00 +23°C° 0 mm 5 mps 764 mmHg 76%
    23:00 +25°C° 0 mm 5 mps 764 mmHg 78%
    Show more